Weather History for Orange, MA

Change the Weather History Date:

Thursday, April 4, 2013

  Actual Average Record
Temperature  
Mean Temperature 40 °F -  
Max Temperature 54 °F 47 °F 60 °F (2012)
Min Temperature 27 °F 26 °F 21 °F (2001)
Degree Days  
Heating Degree Days 25    
Moisture  
Dew Point 15 °F    
Average Humidity 41    
Maximum Humidity 63    
Minimum Humidity 19    
Precipitation  
Precipitation 0.00 in - - ()
Sea Level Pressure  
Sea Level Pressure 30.18 in    
Wind  
Wind Speed 6 mph (WSW)    
Max Wind Speed 13 mph    
Max Gust Speed 23 mph    
Visibility 10 miles    
Events      
Averages and records for this station are not official NWS values.
T = Trace of Precipitation, MM = Missing Value Source: NWS Daily Summary

Daily Weather History Graph

Daily Weather History Graph

Search for Another Location

Airport:

Trip Planner

Search our weather history database for the weather conditions in past years. The results will help you decide how hot, cold, wet, or windy it might be!

Date:

Astronomy

Apr. 04, 2013 Rise Set
Actual Time 6:25 AM EDT 7:18 PM EDT
Civil Twilight 5:57 AM EDT 7:47 PM EDT
Nautical Twilight 5:23 AM EDT 8:21 PM EDT
Astronomical Twilight 4:48 AM EDT 8:57 PM EDT
Moon 2:57 AM EDT (4/4) 1:26 PM EDT (4/4)
Length of Visible Light 13h 50m
Length of Day
12h 52m
Waning Crescent, 34% of the Moon is Illuminated
Apr 4
Waning Crescent
Apr 10
New
Apr 18
First Quarter
Apr 25
Full
May 2
Last Quarter

Hourly Weather History & Observations

Time (EDT) Temp. Windchill Dew Point Humidity Pressure Visibility Wind Dir Wind Speed Gust Speed Precip Events Conditions
12:52 AM 30.0 °F - 12.0 °F 47% 30.22 in 10.0 mi Calm Calm - N/A   Clear
1:52 AM 28.9 °F 22.8 °F 14.0 °F 54% 30.23 in 10.0 mi West 5.8 mph - N/A   Clear
2:52 AM 28.0 °F 24.2 °F 14.0 °F 56% 30.23 in 10.0 mi SW 3.5 mph - N/A   Clear
3:52 AM 28.0 °F 24.2 °F 15.1 °F 58% 30.22 in 10.0 mi WNW 3.5 mph - N/A   Clear
4:52 AM 27.0 °F 20.5 °F 15.1 °F 61% 30.23 in 10.0 mi WNW 5.8 mph - N/A   Clear
5:52 AM 28.0 °F 20.8 °F 15.1 °F 58% 30.27 in 10.0 mi WNW 6.9 mph - N/A   Clear
6:52 AM 27.0 °F 23.0 °F 16.0 °F 63% 30.30 in 10.0 mi NW 3.5 mph - N/A   Clear
7:52 AM 30.9 °F 24.3 °F 15.1 °F 52% 30.32 in 10.0 mi WNW 6.9 mph - N/A   Clear
8:52 AM 33.1 °F 26.1 °F 14.0 °F 46% 30.32 in 10.0 mi West 8.1 mph - N/A   Clear
9:52 AM 36.0 °F 29.6 °F 10.9 °F 36% 30.31 in 10.0 mi NW 8.1 mph - N/A   Clear
10:52 AM 37.9 °F 34.4 °F 9.0 °F 30% 30.27 in 10.0 mi Variable 4.6 mph - N/A   Clear
11:52 AM 42.1 °F 39.2 °F 9.0 °F 26% 30.25 in 10.0 mi WSW 4.6 mph - N/A   Clear
12:52 PM 46.0 °F 41.9 °F 8.1 °F 21% 30.22 in 10.0 mi West 8.1 mph 16.1 mph N/A   Clear
1:52 PM 48.9 °F - 12.0 °F 23% 30.19 in 10.0 mi West 12.7 mph 18.4 mph N/A   Clear
2:52 PM 51.1 °F - 10.9 °F 20% 30.15 in 10.0 mi Variable 5.8 mph 18.4 mph N/A   Clear
3:52 PM 53.1 °F - 12.0 °F 20% 30.11 in 10.0 mi SW 9.2 mph - N/A   Clear
4:52 PM 53.1 °F - 10.9 °F 19% 30.08 in 10.0 mi WSW 10.4 mph 19.6 mph N/A   Clear
5:52 PM 53.1 °F - 12.0 °F 20% 30.07 in 10.0 mi SSW 11.5 mph 23.0 mph N/A   Clear
6:52 PM 48.9 °F - 19.0 °F 31% 30.06 in 10.0 mi South 10.4 mph - N/A   Clear
7:52 PM 46.0 °F 41.4 °F 19.9 °F 35% 30.07 in 10.0 mi South 9.2 mph - N/A   Clear
8:52 PM 44.1 °F 37.7 °F 19.9 °F 38% 30.09 in 10.0 mi South 12.7 mph - N/A   Clear
9:52 PM 41.0 °F 35.2 °F 21.9 °F 47% 30.07 in 10.0 mi South 9.2 mph - N/A   Clear
10:52 PM 39.0 °F 34.0 °F 24.1 °F 55% 30.05 in 10.0 mi SSW 6.9 mph - N/A   Clear
11:52 PM 37.9 °F 32.7 °F 25.0 °F 60% 30.04 in 10.0 mi South 6.9 mph - N/A   Clear